Hourly Data Report for May 23, 2012

All times are specified in Local Standard Time (LST). Add 1 hour to adjust for Daylight Saving Time where and when it is observed.

GANDER INTL A
NEWFOUNDLAND

48°56'13.000" N
54°34'05.000" W
151.20 m
8401703
71803
YQX

Download Data

Hourly Data (May 2012)
Hourly Data Report for May 23, 2012
Temp Definition
°C
Dew Point Temp Definition
°C
Rel Hum Definition
%
Wind Dir Definition
10's deg

Wind Spd Definition
km/h
Visibility Definition
km
Stn Press Definition
kPa
Hmdx Definition


Wind Chill Definition


Weather Definition


TIME
00:30 Legend Double Dagger 15.8 12.4 80 25 23 10.0 99.76     LegendNANA
01:30 Legend Double Dagger 15.4 12.9 85 24 26 10.0 99.73     LegendNANA
02:30 Legend Double Dagger 15.1 12.3 83 23 19 10.0 99.72     Mostly Cloudy
03:30 Legend Double Dagger 14.8 10.7 76 23 25 10.0 99.70     LegendNANA
04:30 Legend Double Dagger 14.6 10.5 76 21 17 10.0 99.69     LegendNANA
05:30 Legend Double Dagger 14.5 8.1 65 22 26 10.0 99.64     Rain
06:30 Legend Double Dagger 14.4 8.4 67 21 25 10.0 99.64     Rain
07:30 Legend Double Dagger 15.8 11.6 76 21 23 10.0 99.62     LegendNANA
08:30 Legend Double Dagger 16.5 12.1 75 21 19 10.0 99.55     Rain
09:30 Legend Double Dagger 17.2 14.0 81 19 20 10.0 99.52     LegendNANA
10:30 Legend Double Dagger 16.1 15.2 94 16 20 10.0 99.47     Rain
11:30 Legend Double Dagger 15.7 15.2 97 14 14 9.7 99.36     Rain,Fog
12:30 Legend Double Dagger 16.4 15.6 95 15 24 9.7 99.17     Rain,Fog
13:30 Legend Double Dagger 15.9 15.3 96 17 30 8.1 99.04     Moderate Rain,Fog
14:30 Legend Double Dagger 15.8 15.0 95 17 29 10.0 98.89     Rain
15:30 Legend Double Dagger 16.4 15.3 93 21 32 10.0 98.89     Rain Showers
16:30 Legend Double Dagger 15.6 14.7 94 23 25 10.0 98.93     Rain Showers
17:30 Legend Double Dagger 8.4 7.8 96 31 34 2.8 99.06     Rain,Fog
18:30 Legend Double Dagger 5.2 4.8 97 31 27 6.4 99.22     Drizzle,Fog
19:30 Legend Double Dagger 3.6 3.2 97 31 37 4.0 99.33     Drizzle,Fog
20:30 Legend Double Dagger 3.1 2.7 97 32 30 8.1 99.49     Rain,Fog
21:30 Legend Double Dagger 3.3 3.0 98 34 29 3.2 99.57     Rain,Fog
22:30 Legend Double Dagger 3.4 3.0 97 36 26 3.2 99.65     Rain,Fog
23:30 Legend Double Dagger 3.0 2.7 98 0 22 1.2 99.80     Drizzle,Fog

Notes on Data Quality.

Legend

  • E = Estimated
  • M = Missing
  • NA = Not Available
  • ‡ = Partner data that is not subject to review by the National Climate Archives
Date modified: